[[{"header":{"parameterUnit":"m.s-1","parameterCategory":1,"la1":30.2991,"la2":30.254,"lo1":-89.0895,"lo2":-89.0444,"dy":0.0017,"dx":0.0017,"nx":28,"ny":28,"refTime":"2024-07-18T09:00:00:Z","depth":0,"parameterNumber":2,"parameterNumberName":"U-component_of_WINDS"},"data":[0,0,0,0,0,0,0,0,0,0,0,0,0,0,0,0,0,0,0,0,0,0,0,0,0,0,0,0,0,0,0,0,0,0,0,0,0,0,0,0,0,0,0,0,0,0,0,0,0,0,0,0,0,0,0,0,0,0,1.698,1.6981,0,1.7045,1.7046,1.7047,1.6998,1.6996,1.6993,1.6991,1.7058,1.7061,1.7065,0,0,0,0,0,0,0,0,0,0,0,0,0,1.6814,1.6817,1.698,1.6981,1.6982,1.7045,1.7046,1.7047,1.6998,1.6995,1.6993,1.699,1.7057,1.7061,1.7065,0,0,0,0,0,0,0,0,0,0,0,0,0,1.6883,1.6818,1.698,1.6965,1.6965,1.7045,1.7046,1.7047,1.6999,1.6995,1.6992,1.6989,1.7055,1.706,1.7066,1.7164,0,0,1.7083,1.7086,0,0,0,0,0,0,0,0,1.6879,1.6889,1.6967,1.6966,1.6966,1.701,1.7011,1.7086,1.6999,1.6986,1.6991,1.6988,1.7044,1.7051,1.707,1.7167,1.717,1.7084,1.7087,1.7089,1.7091,0,0,0,0,0,0,0,1.6874,1.6886,1.7006,1.6968,1.6967,1.6955,1.6961,1.7025,1.7032,1.6987,1.6983,1.6992,1.7044,1.7065,1.7071,1.7171,1.7084,1.7089,1.7092,1.7094,1.735,1.7354,0,0,0,0,0,0,1.6871,1.6882,1.7004,1.7008,1.6914,1.6961,1.6968,1.6999,1.7031,1.7033,1.6994,1.6989,1.7057,1.7065,1.7073,1.7189,1.7089,1.7095,1.7098,1.7347,1.7351,1.7355,0,0,0,0,0,0,1.6868,1.6882,1.7001,1.6944,1.6958,1.6967,1.7003,1.7002,1.7023,1.7037,1.7038,1.7014,1.7054,1.7065,1.7142,1.719,1.7097,1.7102,1.7343,1.7348,1.7353,1.7422,0,0,0,0,0,0,1.6863,1.6882,1.6919,1.6946,1.6962,1.7069,1.7006,1.7006,1.7033,1.7027,1.7056,1.7058,1.7053,1.7133,1.7147,1.7197,1.7107,1.7339,1.7345,1.7351,1.7415,1.7429,1.744,0,0,0,0,0,1.6857,1.6937,1.6922,1.6936,1.7009,1.7072,1.7081,1.7073,1.7037,1.7075,1.7083,1.7057,1.7183,1.7142,1.7157,1.7209,1.7336,1.7343,1.7351,1.741,1.7426,1.744,0,0,0,0,0,0,1.6917,1.694,1.6923,1.7014,1.7041,1.7064,1.7111,1.7092,1.713,1.7123,1.7111,1.7118,1.7198,1.7211,1.7164,1.7304,1.7253,1.7264,1.7293,1.7309,1.7321,1.7316,1.7111,0,0,0,0,0,1.694,1.6989,1.7007,1.7085,1.71,1.7103,1.713,1.7122,1.715,1.7161,1.7176,1.7204,1.7249,1.728,1.7323,1.7417,1.7422,1.746,1.7472,1.7483,1.7492,1.7541,1.7557,1.738,1.738,1.738,0,0,1.6989,1.7008,1.704,1.7097,1.7118,1.7168,1.7113,1.717,1.7207,1.717,1.7242,1.7254,1.7284,1.737,1.7408,1.7383,1.7542,1.7493,1.7501,1.7505,1.7551,1.7567,1.7582,1.7386,1.7385,1.7384,0,0,1.7104,1.7124,1.719,1.7212,1.7243,1.7244,1.726,1.7286,1.7292,1.7364,1.7337,1.7381,1.746,1.7482,1.7504,1.7626,1.7603,1.7641,1.7706,1.7753,1.7767,1.778,1.7821,1.7837,1.765,1.765,1.765,0,1.7162,1.7237,1.7227,1.7285,1.731,1.7278,1.7344,1.7366,1.741,1.7427,1.7399,1.7496,1.7515,1.7604,1.7633,1.7653,1.7669,1.7637,1.7766,1.7778,1.779,1.7829,1.7845,1.7655,1.7654,1.7654,1.7653,0,1.7305,1.7358,1.7407,1.7449,1.748,1.7542,1.7541,1.7573,1.7562,1.7566,1.7639,1.766,1.7706,1.7727,1.7716,1.7814,1.7797,1.7768,1.7716,1.7811,1.7848,1.7863,1.7661,1.7659,1.7658,1.7657,0,0,1.746,1.7494,1.7513,1.7531,1.7562,1.7602,1.7662,1.7707,1.7734,1.7765,1.7814,1.7881,1.7854,1.7878,1.787,1.7912,1.8005,1.7877,1.7878,1.7899,1.8111,1.8132,1.815,1.799,1.7993,1.7995,1.8108,0,1.7575,1.7679,1.7671,1.7769,1.7817,1.7786,1.7838,1.7863,1.7868,1.7909,1.7915,1.7962,1.7923,1.7937,1.7978,1.7985,1.8047,1.7977,1.8034,1.8036,1.8026,1.817,1.8193,1.8299,1.8123,1.8125,1.8127,0,1.7724,1.7759,1.7862,1.7884,1.7904,1.7951,1.799,1.8029,1.8056,1.8057,1.8084,1.8068,1.8127,1.8075,1.8155,1.8108,1.813,1.8138,1.8141,1.8146,1.8087,1.8177,1.8332,1.8348,1.815,1.8148,1.8147,0,1.7825,1.7898,1.7968,1.7985,1.8013,1.8046,1.806,1.8083,1.811,1.8144,1.8161,1.8201,1.8224,1.8255,1.825,1.8213,1.8332,1.8279,1.8333,1.8333,1.8359,1.8357,1.8519,1.8376,1.8375,1.8375,1.8375,0,1.7954,1.8017,1.8013,1.8057,1.8126,1.8116,1.8185,1.8195,1.8216,1.8259,1.8236,1.8278,1.8269,1.831,1.8307,1.8373,1.8384,1.8385,1.8383,1.8387,1.8386,1.8401,1.8393,1.8379,1.8378,1.8378,1.8377,0,1.8078,1.8078,1.8152,1.8173,1.8179,1.823,1.8247,1.8287,1.829,1.8346,1.8358,1.8363,1.841,1.8408,1.8462,1.8459,1.854,1.853,1.8531,1.8528,1.8581,1.8576,1.8757,1.878,1.8624,1.8625,1.8626,0,1.816,1.8208,1.8233,1.826,1.8276,1.8321,1.8347,1.8338,1.8367,1.84,1.8436,1.8481,1.8516,1.8592,1.86,1.864,1.863,1.8691,1.8636,1.8637,1.8629,1.8626,1.863,1.8702,1.8703,1.8705,1.8706,0,1.8305,1.8302,1.8341,1.838,1.8412,1.8443,1.847,1.8494,1.8488,1.8521,1.8569,1.8596,1.865,1.8694,1.8732,1.8745,1.8724,1.8723,1.8737,1.8741,1.8738,1.8738,1.8559,1.8719,1.8718,1.8717,1.8716,1.8715,1.8409,1.845,1.8473,1.8517,1.8537,1.8563,1.8601,1.8608,1.8648,1.8691,1.8683,1.8736,1.8759,1.8808,1.8825,1.8865,1.8844,1.8865,1.887,1.8875,1.888,1.8733,1.8872,1.8872,1.8872,1.8871,1.8871,0,1.8551,1.8565,1.8605,1.8644,1.8678,1.8656,1.8685,1.8715,1.8761,1.8785,1.882,1.8873,1.8915,1.8926,1.8966,1.8996,1.8988,1.9007,1.9004,1.9007,1.8898,1.8881,1.9013,1.9013,1.9013,1.9013,1.9013,1.9013,1.8629,1.8696,1.8696,1.8771,1.8784,1.8835,1.8853,1.8877,1.8895,1.8956,1.8991,1.8997,1.9015,1.9056,1.9094,1.9096,1.9111,1.9134,1.9132,1.9029,1.9015,1.9001,1.8985,1.9138,1.9138,1.9237,1.9238,1.9239]},{"header":{"parameterUnit":"m.s-1","parameterCategory":1,"la1":30.2991,"la2":30.254,"lo1":-89.0895,"lo2":-89.0444,"dy":0.0017,"dx":0.0017,"nx":28,"ny":28,"refTime":"2024-07-18T09:00:00:Z","depth":0,"parameterNumber":3,"parameterNumberName":"V-component_of_WINDS"},"data":[0,0,0,0,0,0,0,0,0,0,0,0,0,0,0,0,0,0,0,0,0,0,0,0,0,0,0,0,0,0,0,0,0,0,0,0,0,0,0,0,0,0,0,0,0,0,0,0,0,0,0,0,0,0,0,0,0,0,-0.3152,-0.3152,0,-0.3118,-0.3118,-0.3117,-0.3119,-0.3119,-0.312,-0.312,-0.3084,-0.3083,-0.3081,0,0,0,0,0,0,0,0,0,0,0,0,0,-0.3217,-0.3216,-0.3152,-0.3151,-0.3151,-0.3118,-0.3118,-0.3117,-0.3119,-0.3119,-0.312,-0.312,-0.3084,-0.3083,-0.3081,0,0,0,0,0,0,0,0,0,0,0,0,0,-0.3186,-0.3215,-0.3152,-0.3148,-0.3147,-0.3118,-0.3118,-0.3117,-0.3119,-0.3119,-0.312,-0.3121,-0.3085,-0.3083,-0.3081,-0.3053,0,0,-0.3074,-0.3073,0,0,0,0,0,0,0,0,-0.3188,-0.3184,-0.3149,-0.3148,-0.3147,-0.3124,-0.3127,-0.3096,-0.3118,-0.3129,-0.312,-0.3121,-0.3096,-0.3093,-0.3085,-0.3052,-0.305,-0.3074,-0.3073,-0.3072,-0.3071,0,0,0,0,0,0,0,-0.319,-0.3185,-0.3138,-0.3148,-0.3147,-0.3147,-0.3144,-0.3121,-0.3109,-0.3128,-0.3129,-0.3125,-0.3096,-0.3087,-0.3085,-0.3049,-0.3074,-0.3072,-0.3071,-0.307,-0.2992,-0.2992,0,0,0,0,0,0,-0.3193,-0.3187,-0.314,-0.3137,-0.317,-0.3146,-0.3142,-0.313,-0.3109,-0.3107,-0.3124,-0.3125,-0.3091,-0.3087,-0.3083,-0.305,-0.3072,-0.307,-0.3069,-0.2993,-0.2992,-0.2991,0,0,0,0,0,0,-0.3195,-0.3189,-0.3141,-0.3162,-0.3156,-0.3144,-0.3131,-0.3129,-0.3121,-0.3106,-0.3104,-0.3117,-0.3091,-0.3086,-0.3061,-0.3049,-0.3069,-0.3067,-0.2994,-0.2993,-0.2992,-0.2983,0,0,0,0,0,0,-0.3197,-0.319,-0.3179,-0.3162,-0.3155,-0.3119,-0.313,-0.3128,-0.3117,-0.3118,-0.3099,-0.3097,-0.3091,-0.3064,-0.3059,-0.3046,-0.3065,-0.2995,-0.2994,-0.2992,-0.2985,-0.2982,-0.298,0,0,0,0,0,-0.3199,-0.3177,-0.3178,-0.3173,-0.3142,-0.3119,-0.3115,-0.3109,-0.3116,-0.3105,-0.3096,-0.3098,-0.3051,-0.3062,-0.3056,-0.3042,-0.2996,-0.2994,-0.2992,-0.2986,-0.2983,-0.298,0,0,0,0,0,0,-0.3192,-0.3175,-0.3176,-0.3148,-0.3135,-0.3119,-0.3105,-0.3106,-0.3089,-0.3091,-0.3084,-0.308,-0.3055,-0.3046,-0.3058,-0.3015,-0.3024,-0.3021,-0.3021,-0.3018,-0.3016,-0.3018,-0.3064,0,0,0,0,0,-0.3188,-0.3171,-0.3157,-0.3134,-0.3127,-0.3117,-0.3107,-0.3104,-0.309,-0.3084,-0.3073,-0.3059,-0.3041,-0.3029,-0.3012,-0.2984,-0.298,-0.2972,-0.2969,-0.2967,-0.2965,-0.295,-0.2946,-0.2986,-0.2986,-0.2986,0,0,-0.3177,-0.3166,-0.3156,-0.3132,-0.3121,-0.3104,-0.3112,-0.3093,-0.308,-0.3081,-0.3057,-0.3048,-0.3032,-0.3005,-0.2993,-0.2997,-0.2953,-0.2965,-0.2964,-0.2962,-0.2947,-0.2944,-0.294,-0.2984,-0.2985,-0.2985,0,0,-0.315,-0.314,-0.312,-0.311,-0.3094,-0.3088,-0.3083,-0.3067,-0.3062,-0.3038,-0.3038,-0.3023,-0.2992,-0.2981,-0.2971,-0.2942,-0.2942,-0.2936,-0.2923,-0.2909,-0.2906,-0.2903,-0.2893,-0.2889,-0.2934,-0.2934,-0.2934,0,-0.314,-0.3114,-0.311,-0.3091,-0.3081,-0.3082,-0.3062,-0.3051,-0.303,-0.3023,-0.3029,-0.2991,-0.298,-0.2951,-0.2945,-0.2937,-0.2931,-0.2938,-0.2907,-0.2904,-0.2901,-0.2891,-0.2887,-0.2933,-0.2933,-0.2933,-0.2933,0,-0.3102,-0.3084,-0.3069,-0.305,-0.3039,-0.3019,-0.3012,-0.3001,-0.2999,-0.2993,-0.2969,-0.2956,-0.2937,-0.293,-0.2928,-0.2901,-0.2904,-0.2908,-0.2917,-0.2897,-0.2887,-0.2884,-0.2932,-0.2932,-0.2933,-0.2933,0,0,-0.3067,-0.3048,-0.3043,-0.3035,-0.3018,-0.3004,-0.2985,-0.2967,-0.2958,-0.2944,-0.2927,-0.2903,-0.2907,-0.2896,-0.2893,-0.288,-0.2858,-0.2886,-0.2885,-0.2881,-0.2828,-0.2825,-0.2821,-0.2859,-0.2858,-0.2858,-0.283,0,-0.3039,-0.3005,-0.3002,-0.2972,-0.2956,-0.2957,-0.2941,-0.2929,-0.2923,-0.2908,-0.2901,-0.2884,-0.289,-0.2884,-0.2872,-0.2863,-0.2847,-0.2865,-0.2844,-0.2843,-0.2847,-0.2816,-0.2812,-0.2786,-0.2826,-0.2825,-0.2825,0,-0.3,-0.2986,-0.2955,-0.2942,-0.2935,-0.292,-0.2904,-0.289,-0.2877,-0.2873,-0.2862,-0.2861,-0.2842,-0.2852,-0.2826,-0.2838,-0.2829,-0.2824,-0.2823,-0.282,-0.2832,-0.2812,-0.2778,-0.2774,-0.2819,-0.2819,-0.282,0,-0.2978,-0.2952,-0.293,-0.2923,-0.2907,-0.2897,-0.289,-0.2878,-0.2867,-0.2853,-0.2847,-0.2831,-0.2821,-0.2809,-0.2804,-0.2812,-0.2777,-0.2787,-0.2774,-0.2774,-0.2765,-0.2766,-0.2729,-0.276,-0.276,-0.2761,-0.2761,0,-0.2946,-0.2927,-0.292,-0.2907,-0.2886,-0.2882,-0.2861,-0.2855,-0.2844,-0.2829,-0.283,-0.2816,-0.281,-0.2795,-0.2791,-0.277,-0.2766,-0.2762,-0.2761,-0.2762,-0.2762,-0.2756,-0.2757,-0.276,-0.276,-0.276,-0.276,0,-0.2918,-0.2912,-0.2889,-0.2877,-0.2873,-0.2858,-0.2847,-0.2835,-0.2829,-0.2811,-0.2806,-0.2798,-0.2781,-0.2775,-0.2753,-0.2751,-0.2726,-0.2727,-0.2731,-0.273,-0.2717,-0.2718,-0.2674,-0.2668,-0.2704,-0.2703,-0.2703,0,-0.2897,-0.2882,-0.2869,-0.286,-0.2853,-0.2837,-0.2828,-0.2824,-0.2814,-0.2799,-0.2788,-0.2771,-0.2757,-0.273,-0.2722,-0.2706,-0.2706,-0.2691,-0.2703,-0.2705,-0.2706,-0.2706,-0.2705,-0.2689,-0.2689,-0.2688,-0.2688,0,-0.2861,-0.286,-0.2846,-0.2831,-0.282,-0.2808,-0.2796,-0.2789,-0.2784,-0.2772,-0.2755,-0.2745,-0.2724,-0.2707,-0.2692,-0.2684,-0.2685,-0.2685,-0.2681,-0.2681,-0.2684,-0.2682,-0.2724,-0.2685,-0.2686,-0.2686,-0.2686,-0.2686,-0.2836,-0.2823,-0.2813,-0.2797,-0.2789,-0.2778,-0.2766,-0.276,-0.2746,-0.2729,-0.2728,-0.271,-0.2699,-0.2678,-0.267,-0.2655,-0.2659,-0.2653,-0.2652,-0.265,-0.2649,-0.2687,-0.2652,-0.2652,-0.2652,-0.2653,-0.2653,0,-0.28,-0.2793,-0.278,-0.2764,-0.2753,-0.2756,-0.2744,-0.2734,-0.2718,-0.2707,-0.2695,-0.2676,-0.266,-0.2651,-0.2636,-0.2626,-0.2626,-0.2622,-0.2622,-0.2621,-0.2647,-0.2652,-0.2622,-0.2622,-0.2622,-0.2622,-0.2622,-0.2622,-0.278,-0.2759,-0.2757,-0.2732,-0.2726,-0.2709,-0.2702,-0.2693,-0.2684,-0.2663,-0.2651,-0.2646,-0.2636,-0.262,-0.2606,-0.2604,-0.2598,-0.2594,-0.2592,-0.2616,-0.2619,-0.2622,-0.2627,-0.2592,-0.2592,-0.2567,-0.2567,-0.2567]}]]